Date String (YYYY-MM-DD hh:mm:ss) UTC,Instrument flags,Ambient pressure (hPa),Sample flow (lpm),Bypass flow (lpm),Sample temperature (°C),Ambient temperature (°C),ASC tube jacket temperature (°C),LED temperature (°C),Box temperature (°C),Sample RH (%),Span deviation,Mass concentration (μg/m³),Mass concentration (μg/m³),Mass concentration (μg/m³)
DateTimeUTC,F1_M11,P_M11,Q1_M11,Q2_M11,T1_M11,T2_M11,T3_M11,T4_M11,T5_M11,U1_M11,ZSPAN_M11,X0_M11,X2_M11,X1_M11
2023-01-29 20:00:00,,0823.3,4.99,0.00,22.6,20.9,00.0,31.6,24.2,04.9,0002.2,0008.68,0005.38,0004.76
2023-01-29 20:01:00,,0823.4,5.00,0.00,22.7,21.8,00.0,31.6,24.5,04.9,0002.0,0008.58,0005.34,0004.75
2023-01-29 20:02:00,,0823.4,4.99,0.00,22.8,22.8,00.0,31.6,24.7,04.9,0001.9,0008.60,0005.36,0004.77
2023-01-29 20:03:00,,0823.4,4.99,0.00,22.9,23.2,00.0,31.6,24.9,04.9,0001.8,0008.66,0005.38,0004.77
2023-01-29 20:04:00,,0823.4,4.99,0.00,22.9,22.6,00.0,31.6,24.8,04.9,0001.8,0008.76,0005.42,0004.77
2023-01-29 20:05:00,,0823.4,5.01,0.00,22.9,22.1,00.0,31.7,24.6,04.9,0001.6,0008.77,0005.42,0004.77
2023-01-29 20:06:00,,0823.4,5.00,0.00,22.9,21.7,00.0,31.7,24.5,04.9,0001.5,0008.83,0005.45,0004.78
2023-01-29 20:07:00,,0823.3,5.00,0.00,22.8,21.4,00.0,31.7,24.5,04.9,0000.9,0008.72,0005.41,0004.78
2023-01-29 20:08:00,,0823.4,4.99,0.00,22.8,21.2,00.0,31.7,24.4,04.9,0001.4,0008.77,0005.42,0004.78
2023-01-29 20:09:00,,0823.4,5.00,0.00,22.7,21.0,00.0,31.6,24.3,05.0,0001.3,0008.75,0005.40,0004.78
2023-01-29 20:10:00,,0823.3,5.00,0.00,22.7,20.8,00.0,31.6,24.2,05.0,0001.3,0008.62,0005.37,0004.78
2023-01-29 20:11:00,,0823.3,5.00,0.00,22.6,20.7,00.0,31.6,24.1,05.0,0001.2,0008.51,0005.33,0004.75
2023-01-29 20:12:00,,0823.4,5.00,0.00,22.6,21.5,00.0,31.5,24.4,05.0,0001.4,0008.48,0005.32,0004.75
2023-01-29 20:13:00,,0823.4,5.00,0.00,22.8,22.5,00.0,31.5,24.7,05.0,0001.7,0008.41,0005.29,0004.74
2023-01-29 20:14:00,,0823.4,5.00,0.00,22.9,23.1,00.0,31.6,24.8,05.0,0002.1,0008.52,0005.29,0004.72
2023-01-29 20:15:00,,0823.3,5.00,0.00,22.9,22.6,00.0,31.6,24.8,04.9,0002.1,0008.47,0005.26,0004.72
2023-01-29 20:16:00,,0823.4,4.99,0.00,22.9,22.1,00.0,31.6,24.6,04.9,0002.0,0008.41,0005.23,0004.72
2023-01-29 20:17:00,,0823.4,4.99,0.00,22.8,21.7,00.0,31.6,24.4,04.9,0001.9,0008.39,0005.21,0004.70
2023-01-29 20:18:00,,0823.4,5.00,0.00,22.8,21.3,00.0,31.6,24.4,04.9,0001.9,0008.36,0005.19,0004.69
2023-01-29 20:19:00,,0823.4,5.00,0.00,22.7,21.1,00.0,31.6,24.3,04.9,0001.9,0008.34,0005.20,0004.70
2023-01-29 20:20:00,,0823.4,5.00,0.00,22.7,20.9,00.0,31.6,24.2,04.9,0001.6,0008.32,0005.21,0004.72
2023-01-29 20:21:00,,0823.3,5.01,0.00,22.6,20.8,00.0,31.6,24.1,05.0,0002.0,0008.32,0005.22,0004.71
2023-01-29 20:22:00,,0823.3,5.01,0.00,22.6,21.4,00.0,31.5,24.3,05.0,0002.4,0008.48,0005.26,0004.72
2023-01-29 20:23:00,,0823.4,5.00,0.00,22.7,22.4,00.0,31.5,24.6,05.0,0002.4,0008.60,0005.30,0004.73
2023-01-29 20:24:00,,0823.4,4.98,0.00,22.8,22.7,00.0,31.6,24.7,04.9,0002.6,0008.75,0005.36,0004.76
2023-01-29 20:25:00,,0823.3,5.00,0.00,22.8,22.2,00.0,31.6,24.6,04.9,0002.4,0008.73,0005.39,0004.79
2023-01-29 20:26:00,,0823.2,4.99,0.00,22.8,21.8,00.0,31.6,24.5,04.9,0002.0,0008.66,0005.39,0004.80
2023-01-29 20:27:00,,0823.3,4.99,0.00,22.7,21.5,00.0,31.6,24.4,04.9,0001.9,0008.78,0005.41,0004.82
2023-01-29 20:28:00,,0823.2,4.99,0.00,22.7,21.2,00.0,31.6,24.3,04.9,0002.0,0009.89,0005.45,0004.84
2023-01-29 20:29:00,,0823.1,5.00,0.00,22.7,21.0,00.0,31.6,24.2,04.9,0002.1,0010.08,0005.48,0004.86
2023-01-29 20:30:00,,0823.1,5.01,0.00,22.6,20.9,00.0,31.6,24.2,04.9,0002.3,0010.06,0005.48,0004.87
2023-01-29 20:31:00,,0823.2,5.00,0.00,22.6,20.9,00.0,31.5,24.2,04.9,0002.5,0010.01,0005.46,0004.87
2023-01-29 20:32:00,,0823.2,5.01,0.00,22.6,21.8,00.0,31.5,24.4,04.9,0002.2,0010.09,0005.50,0004.90
2023-01-29 20:33:00,,0823.2,4.99,0.00,22.7,22.8,00.0,31.5,24.7,04.9,0002.1,0010.09,0005.54,0004.93
2023-01-29 20:34:00,,0823.2,5.00,0.00,22.8,23.1,00.0,31.5,24.8,04.9,0001.9,0010.10,0005.54,0004.96
2023-01-29 20:35:00,,0823.2,4.99,0.00,22.8,22.6,00.0,31.6,24.7,04.9,0001.4,0010.12,0005.57,0004.97
2023-01-29 20:36:00,,0823.3,5.01,0.00,22.8,22.1,00.0,31.6,24.5,05.0,0001.2,0010.16,0005.59,0004.98
2023-01-29 20:37:00,,0823.2,5.00,0.00,22.8,21.6,00.0,31.6,24.4,05.0,0001.6,0010.20,0005.62,0005.00
2023-01-29 20:38:00,,0823.3,5.01,0.00,22.7,21.3,00.0,31.6,24.3,05.0,0001.9,0010.11,0005.64,0005.01
2023-01-29 20:39:00,,0823.3,5.02,0.00,22.6,21.0,00.0,31.6,24.2,05.0,0002.3,0008.99,0005.60,0005.00
2023-01-29 20:40:00,,0823.2,5.00,0.00,22.6,20.8,00.0,31.6,24.1,05.0,0002.4,0009.00,0005.61,0005.01
2023-01-29 20:41:00,,0823.2,5.00,0.00,22.6,21.2,00.0,31.5,24.2,05.1,0002.6,0009.26,0005.64,0005.02
2023-01-29 20:42:00,,0823.3,4.99,0.00,22.7,22.2,00.0,31.5,24.5,05.0,0002.9,0009.22,0005.63,0005.01
2023-01-29 20:43:00,,0823.4,4.99,0.00,22.8,23.1,00.0,31.5,24.8,05.0,0003.2,0009.10,0005.57,0004.99
2023-01-29 20:44:00,,0823.3,4.98,0.00,22.9,22.9,00.0,31.6,24.8,05.0,0003.0,0008.91,0005.50,0004.96
2023-01-29 20:45:00,,0823.3,5.00,0.00,22.8,22.3,00.0,31.6,24.6,05.0,0003.0,0008.78,0005.45,0004.94
2023-01-29 20:46:00,,0823.4,4.99,0.00,22.8,21.8,00.0,31.6,24.5,04.9,0003.2,0008.78,0005.45,0004.94
2023-01-29 20:47:00,,0823.4,4.99,0.00,22.7,21.4,00.0,31.6,24.3,04.9,0003.4,0008.79,0005.45,0004.94
2023-01-29 20:48:00,,0823.4,5.00,0.00,22.7,21.1,00.0,31.6,24.2,04.9,0003.5,0008.82,0005.45,0004.94
2023-01-29 20:49:00,,0823.3,4.99,0.00,22.6,20.9,00.0,31.6,24.1,04.9,0003.2,0008.86,0005.48,0004.95
2023-01-29 20:50:00,,0823.4,5.01,0.00,22.6,20.8,00.0,31.6,24.1,04.9,0002.9,0008.90,0005.50,0004.97
2023-01-29 20:51:00,,0823.3,5.02,0.00,22.6,21.6,00.0,31.5,24.3,04.9,0002.9,0008.80,0005.50,0004.96
2023-01-29 20:52:00,,0823.3,5.00,0.00,22.7,22.7,00.0,31.5,24.6,04.9,0002.9,0008.54,0005.46,0004.94
2023-01-29 20:53:00,,0823.4,4.99,0.00,22.8,23.1,00.0,31.5,24.8,04.9,0002.9,0008.61,0005.49,0004.94
2023-01-29 20:54:00,,0823.2,5.01,0.00,22.9,22.6,00.0,31.6,24.7,04.9,0002.8,0008.73,0005.55,0004.96
2023-01-29 20:55:00,,0823.2,4.99,0.00,22.8,22.0,00.0,31.6,24.6,04.9,0002.7,0008.85,0005.61,0004.99
2023-01-29 20:56:00,,0823.3,5.00,0.00,22.8,21.6,00.0,31.6,24.4,04.9,0003.0,0008.93,0005.65,0004.99
2023-01-29 20:57:00,,0823.4,4.98,0.00,22.7,21.3,00.0,31.6,24.3,04.9,0003.2,0008.95,0005.65,0004.99
2023-01-29 20:58:00,,0823.3,5.02,0.00,22.7,21.0,00.0,31.6,24.2,04.9,0003.0,0008.95,0005.63,0004.98
2023-01-29 20:59:00,,0823.3,4.99,0.00,22.6,20.8,00.0,31.6,24.1,04.9,0003.1,0008.95,0005.65,0004.98
